Date,TemperatureHighF,TemperatureAvgF,TemperatureLowF,DewpointHighF,DewpointAvgF,DewpointLowF,HumidityHigh,HumidityAvg,HumidityLow,PressureMaxIn,PressureMinIn,WindSpeedMaxMPH,WindSpeedAvgMPH,GustSpeedMaxMPH,PrecipitationSumIn
2013-12-1,33,28,26,-100,-100,-100,0,0,100,0.00,40.00,0,-999,0,0.00
2013-12-2,31,30,28,-100,-100,-100,0,0,100,0.00,40.00,0,-999,0,0.00
2013-12-3,13,2,-7,-100,-100,-100,0,0,100,0.00,40.00,0,-999,0,0.00
2013-12-4,-4,-8,-13,-100,-100,-100,0,0,100,0.00,40.00,0,-999,0,0.00
2013-12-9,14,6,-17,-100,-100,-100,0,0,100,0.00,40.00,0,-999,0,0.00
2013-12-10,16,10,1,-100,-100,-100,0,0,100,0.00,40.00,0,-999,0,0.00
2013-12-11,28,21,1,-100,-100,-100,0,0,100,0.00,40.00,0,-999,0,0.00
2013-12-12,28,26,25,-100,-100,-100,0,0,100,0.00,40.00,0,-999,0,0.00
2013-12-13,30,25,20,-100,-100,-100,0,0,100,0.00,40.00,0,-999,0,0.00
2013-12-14,31,31,31,-100,-100,-100,0,0,100,0.00,40.00,0,-999,0,0.00
2013-12-15,34,30,24,-100,-100,-100,0,0,100,0.00,40.00,0,-999,0,0.00
2013-12-16,41,32,27,-100,-100,-100,0,0,100,0.00,40.00,0,-999,0,0.00
2013-12-17,44,35,25,-100,-100,-100,0,0,100,0.00,40.00,0,-999,0,0.00
2013-12-18,38,34,30,-100,-100,-100,0,0,100,0.00,40.00,0,-999,0,0.00
2013-12-19,29,19,10,-100,-100,-100,0,0,100,0.00,40.00,0,-999,0,0.00
2013-12-20,19,14,7,-100,-100,-100,0,0,100,0.00,40.00,0,-999,0,0.00
2013-12-21,26,14,2,-100,-100,-100,0,0,100,0.00,40.00,0,-999,0,0.00
2013-12-22,25,14,4,-100,-100,-100,0,0,100,0.00,40.00,0,-999,0,0.00
2013-12-23,30,21,12,-100,-100,-100,0,0,100,0.00,40.00,0,-999,0,0.00
2013-12-24,28,21,10,-100,-100,-100,0,0,100,0.00,40.00,0,-999,0,0.01
2013-12-25,35,19,8,-100,-100,-100,0,0,100,0.00,40.00,0,-999,0,0.00
2013-12-26,39,30,22,-100,-100,-100,0,0,100,0.00,40.00,0,-999,0,0.00
2013-12-27,33,31,29,-100,-100,-100,0,0,100,0.00,40.00,0,-999,0,0.00
2013-12-28,23,21,19,-100,-100,-100,0,0,100,0.00,40.00,0,-999,0,0.00
2013-12-29,22,13,6,-100,-100,-100,0,0,100,0.00,40.00,0,-999,0,0.00
2013-12-30,31,27,23,-100,-100,-100,0,0,100,0.00,40.00,0,-999,0,0.00
2013-12-31,26,24,23,-100,-100,-100,0,0,100,0.00,40.00,0,-999,0,0.00